www.pogodaiklimat.ru

Погода и климат >> Архив погоды >> Индонезия >> Котабару


ПОГОДА в Котабару

  • Прогноз погоды в Котабару
  • Монитор погоды в Котабару

АРХИВ ПОГОДЫ в Котабару

Время (UTC), дата Ветер
(напр.,м/с)
 
Видим.   Явления Облачность Т
(С)
Тd
(С)
f
(%)
Тe
(С)
Тes
(С)
Комфортность P
(гПа)
Po
(гПа)
Тmin
(С)
Tmax
(С)
R
(мм)
R24
(мм)
S
(см)
09 12.08 В 3 8000 м 8/5 420 м
[Cu med, cong Ac trans Ci fib]
+31.1 +21.6 57 +39 +40 очень
душно
1008.9 1008.6
12 12.08 Ю 1 8000 м 5/4 420 м
[Cu med, cong Ac trans Ci fib]
+27.1 +22.2 75 +35 +35 очень
душно
1010.8 1010.5 +31.9
15 12.08 штиль 0 8000 м 5/4 420 м
[Cu med, cong Ac trans Ci fib]
+24.5 +21.7 84 +31 +31 очень
душно
1011.5 1011.2
00 13.08 Ю 2 8000 м 5/3 420 м
[Cu med, cong As trans Ci fib]
+25.3 +23.8 91 +34 +37 очень
душно
1012.2 1012.0 +21.6 0.6
03 13.08 З 2 8000 м 6/4 420 м
[Cu med, cong As trans Ci fib]
+30.9 +23.2 64 +41 +51 опасность
перегрева
1012.5 1012.3
06 13.08 ЮВ 2 8000 м 8/5 420 м
[Cu med, cong As trans Ci fib]
+32.8 +20.2 48 +39 +45 очень
душно
1009.7 1009.4
09 13.08 СВ 4 8000 м 8/5 420 м
[Cu med, cong As trans Ci fib]
+31.0 +20.7 54 +38 +39 очень
душно
1009.3 1009.0
12 13.08 Ю 2 8000 м 5/4 420 м
[Sc diur, vesp As trans]
+27.2 +22.7 76 +36 +36 очень
душно
1011.7 1011.5 +33.1
15 13.08 штиль 0 8000 м 5/4 420 м
[Sc diur, vesp As trans]
+25.6 +22.9 85 +34 +34 очень
душно
1012.9 1012.7
00 14.08 Ю 2 7000 м 9/5 420 м
[Sc diur, vesp As op Ci fib]
+25.8 +23.8 89 +35 +36 очень
душно
1013.2 1013.0 +24.5
03 14.08 СЗ 3 8000 м 9/5 420 м
[Cu med, cong As op Ci fib]
+29.7 +24.1 72 +41 +46 опасность
перегрева
1013.0 1012.8
06 14.08 СЗ 3 8000 м 9/5 420 м
[Cu med, cong As op Ci fib]
+31.9 +22.9 59 +42 +46 опасность
перегрева
1010.1 1009.8
09 14.08 ЮВ 3 8000 м 8/5 420 м
[Cu med, cong As trans Ci fib]
+30.3 +22.2 62 +39 +40 очень
душно
1009.1 1008.9
12 14.08 ЮВ 2 8000 м 6/4 420 м
[Cu med, cong As trans Ci fib]
+26.3 +22.1 78 +34 +34 очень
душно
1011.4 1011.2 +32.0
15 14.08 штиль 0 8000 м 6/4 420 м
[Cu med, cong As trans Ci fib]
+24.9 +22.4 86 +33 +33 очень
душно
1013.0 1012.8
00 15.08 Ю 1 8000 м 5/3 420 м
[Cu med, cong Ac trans Ci fib]
+24.1 +23.1 94 +32 +35 очень
душно
1013.9 1013.6 +21.9
03 15.08 В 4 8000 м 6/5 420 м
[Cu med, cong Ac trans Ci fib]
+30.7 +22.0 60 +39 +46 очень
душно
1013.7 1013.4
06 15.08 В 4 8000 м 6/5 420 м
[Cu med, cong Ac trans Ci fib]
+32.3 +20.7 50 +39 +45 очень
душно
1011.1 1010.8
09 15.08 ЮВ 5 8000 м 6/4 420 м
[Cu med, cong As trans Ci fib]
+30.0 +21.2 59 +38 +38 очень
душно
1010.2 1010.0
12 15.08 Ю 2 8000 м 6/4 420 м
[Cu med, cong As trans Ci fib]
+25.9 +20.0 70 +32 +32 очень
душно
1011.5 1011.3 +32.3
15 15.08 ЮВ 2 8000 м 6/4 420 м
[Cu med, cong As trans Ci fib]
+24.3 +21.0 82 +31 +31 очень
душно
1013.2 1013.0
00 16.08 Ю 2 8000 м 8/3 420 м
[Cu med, cong Ac trans Ci fib]
+24.5 +22.8 90 +32 +34 очень
душно
1013.0 1012.7 +22.1
03 16.08 З 4 8000 м 6/4 420 м
[Cu med, cong Ac trans Ci fib]
+29.3 +23.2 70 +40 +46 очень
душно
1013.1 1012.8
06 16.08 ЮВ 3 8000 м 6/4 420 м
[Cu med, cong Ac trans Ci fib]
+32.1 +21.1 52 +40 +46 очень
душно
1010.6 1010.3
09 16.08 ЮВ 3 8000 м 6/4 420 м
[Cu med, cong As trans Ci fib]
+30.7 +21.8 59 +39 +40 очень
душно
1009.9 1009.6
12 16.08 ЮВ 3 8000 м 6/4 420 м
[Cu med, cong As trans Ci fib]
+26.7 +21.7 74 +34 +34 очень
душно
1011.4 1011.2 +32.1
15 16.08 ЮЗ 2 8000 м 6/4 420 м
[Cu med, cong As trans Ci fib]
+25.0 +22.1 84 +32 +32 очень
душно
1013.1 1012.9
00 17.08 Ю 3 8000 м 8/4 420 м
[Cu med, cong Ac lent Ci fib]
+25.1 +22.5 86 +33 +34 очень
душно
1013.8 1013.6 +23.2
03 17.08 ЮВ 5 8000 м 8/4 420 м
[Cu med, cong Ac trans Ci fib]
+29.8 +22.9 67 +40 +43 очень
душно
1013.6 1013.4
06 17.08 СВ 2 8000 м в посл. час дождь 9/6 420 м
[Cu med, cong Ac trans Ci fib]
+27.9 +23.6 77 +38 +42 очень
душно
1011.5 1011.3 7
09 17.08 ЮВ 4 8000 м {дождь} 9/6 420 м
[Cu med, cong Ac trans Ci fib]
+28.1 +23.4 76 +38 +39 очень
душно
1010.7 1010.4 2
12 17.08 ЮВ 4 8000 м {дождь} 9/6 420 м
[Cu med, cong Ac trans Ci fib]
+26.4 +22.2 78 +34 +34 очень
душно
1012.1 1011.8 +30.2 2
15 17.08 З 2 8000 м 9/6 420 м
[Cu med, cong Ac trans Ci fib]
+24.8 +22.3 86 +32 +32 очень
душно
1013.1 1012.8
00 18.08 ЮВ 2 8000 м 8/5 420 м
[Cu med, cong Ac trans Ci fib]
+25.1 +23.0 88 +33 +35 очень
душно
1013.6 1013.4 +23.4 8
03 18.08 ЮВ 3 8000 м в посл. час дождь 9/6 420 м
[Cu med, cong Ac trans Ci fib]
+28.1 +22.9 73 +37 +42 очень
душно
1013.5 1013.3 0.0
06 18.08 В 3 8000 м {дождь} 9/6 420 м
[Cu med, cong Ac trans Ci fib]
+28.7 +22.0 67 +37 +40 очень
душно
1010.9 1010.7 0.0
09 18.08 Ю 3 8000 м 9/6 420 м
[Cu med, cong Ac trans Ci fib]
+28.3 +22.2 70 +37 +37 очень
душно
1009.9 1009.6
12 18.08 Ю 2 8000 м 9/6 420 м
[Cu med, cong Ac trans Ci fib]
+26.3 +21.8 76 +34 +34 очень
душно
1011.7 1011.4 +30.2
15 18.08 Ю 2 8000 м 6/5 420 м
[Cu med, cong Ac trans Ci fib]
+24.7 +22.2 86 +32 +32 очень
душно
1012.9 1012.6
00 19.08 Ю 3 7000 м 9/5 420 м
[Cu med, cong As op Ci fib]
+24.6 +22.4 88 +32 +33 очень
душно
1013.2 1013.0 +24.0 0.0
03 19.08 штиль 0 6000 м в посл. час дождь 9/6 420 м
[Cu med, cong As op Ci fib]
+26.0 +23.6 87 +35 +42 очень
душно
1013.2 1013.0 4
06 19.08 ЮВ 4 7000 м {дождь} 9/6 420 м
[Cu med, cong As op Ci fib]
+28.6 +22.2 68 +37 +40 очень
душно
1010.5 1010.3 4

 

Местоположение метеостанции Котабару (Индонезия): широта -3.40 долгота 116.21 высота над уровнем моря 18 м.

В архиве по умолчанию представлена погода в Котабару за последнюю неделю. Архивные данные за месяц целиком и за предыдущие месяцы, начиная с января 2011 года, Вы можете получить, выбрав интересующий диапазон дат из раскрывающегося списка и нажав кнопку "Ввод!".


*Определитесь, кто Вы:
робот инопланетянин человек

Внимание! Время в таблицах - всемирное. Для получения местного времени необходимо прибавить поправку, которая равна 8 ч.

Смотрите также архив погоды в соседних городах и на ближайших метеорологических станциях:

Погода в Банджармасине (Индонезия) (162 км)
Погода в Баликпапане (Индонезия) (249 км)
Погода в Муаратевехе (Индонезия) (309 км)
Погода в Маджене (Индонезия) (326 км)
Погода в Самаринде (Индонезия) (326 км)
Погода в Паоанкарая (Индонезия) (363 км)
Погода в Аэропорту Султана Хасануддин (Индонезия) (414 км)
Погода в Уджангпанданге (Индонезия) (414 км)
Погода в Масамбе (Индонезия) (471 км)
Погода в Калиянджете (Индонезия) (476 км)

Пояснения к столбцам:

Ветер - указаны скорость ветра в м/с - средняя за 10 мин, порывы в срок и между сроками (в фигурных скобках) и направление, откуда дует ветер: С - северный, СВ - северо-восточный, В - восточный, ЮВ - юго-восточный, Ю - южный, ЮЗ - юго-западный, З - западный, СЗ - северо-западный.
Видимость - горизонтальная дальность видимости в метрах или километрах. При видимости от 1 до 10 км при отсутствии осадков обычно наблюдается дымка, при ухудшении видимости до 1 км и менее - туман. В сухую погоду видимость может ухудшаться дымом, пылью или мглою.
Явления - указаны атмосферные явления, наблюдавшиеся в срок или в последний час перед сроком; фигурными скобками обозначены явления, наблюдавшиеся между сроками (за 1-3 часа до срока); квадратными скобками обозначены град или гололедные отложения с указанием их диаметра в мм.
Облачность - указаны через наклонную черту общая и нижняя облачность в баллах и высота нижней границы облаков в метрах; квадратными скобками обозначены формы облаков: Ci - перистые, Cs - перисто-слоистые, Cc - перисто-кучевые, Ac - высококучевые, As - высокослоистые, Sc - слоисто-кучевые, Ns - слоисто-дождевые, Cu - кучевые, Cb - кучево-дождевые. Подробнее классификацию облаков см. в Атласе облаков (PDF).
T - Температура воздуха - температура, измеренная на высоте 2 м над землей.
Td - Температура точки росы - температура, при понижении до которой содержащийся в воздухе водяной пар достигнет насыщения.
f - Относительная влажность воздуха - влажноcть воздуха, измеренная на высоте 2 м над землей.
Te - Эффективная температура - температура, которую ощущает одетый по сезону человек в тени. Характеристика душности погоды. При расчете учитывается влияние влажности воздуха и скорости ветра на теплоощущения человека.
Tes - Эффективная температура на солнце - температура, которую ощущает человек, с поправкой на солнечный нагрев. Характеристика знойности погоды. Зависит от высоты солнца над горизонтом, облачности и скорости ветра. Ночью, в пасмурную погоду, а также при ветре 12 м/с и более поправка равна нулю.
P - Атмосферное давление - приведенное к уровню моря атмосферное давление.
Po - Атмосферное давление - измеренное на уровне метеостанции атмосферное давление.
Tmin - Минимальная температура - минимум температуры воздуха на высоте 2 м над землей.
Tmax - Максимальная температура - максимум температуры воздуха на высоте 2 м над землей.
R - Количество осадков - Количество выпавших осадков за период времени, мм. При наведении курсора мыши на число - период времени, за который выпало указанное количество осадков.
R24 - Количество осадков - Количество выпавших осадков за 24 часа, мм.
S - Снежный покров - Высота снежного покрова, см. При наведении курсора мыши на число - состояние снежного покрова и степень покрытия местности в баллах.